Погода в Брокен Хилл

Австралия     31˚57′48″S   141˚28′09″E
темп.,
°C
ветер,
м/с
пор.,
м/с
влажн.,
%
обл.,
%
осадки,
мм/ч
давл.,
гПа
погр.,
м
17 января, вс
вс1701:30+19˚ю9134767 0.0 1017558
04:30+16˚ююв7105670 0.0 1018518
07:30+16˚ююв796298 0.0 1020570
10:30+20˚ююв664791 0.0 1020927
13:30+25˚ю663491 0.0 10181496
16:30+27˚ю662859 0.0 10152014
19:30+26˚ююв662877 0.0 10152223
22:30+24˚ю593382 0.0 1017279
18 января, пн
пн1801:30+20˚ю8134014 0.0 1017448
04:30+16˚ю812507 0.0 1017404
07:30+15˚ю710550 0.0 1019330
10:30+22˚ююв77320 0.0 1019603
13:30+27˚ю55220 0.0 10171767
16:30+29˚ю65190 0.0 10142320
19:30+28˚ю76222 0.0 10142205
22:30+24˚ю59251 0.0 1016199
19 января, вт
вт1901:30+20˚ю9144034 0.0 1016456
04:30+17˚ю9136017 0.0 1018467
07:30+16˚ю811600 0.0 1019467
10:30+22˚ююв77390 0.0 1020751
13:30+27˚ююв66250 0.0 10181399
16:30+29˚ююв66160 0.0 10151805
19:30+28˚ююв66160 0.0 10151715
22:30+24˚ююв510210 0.0 1017205
20 января, ср
ср2001:30+22˚ююв45190 0.0 101786
04:30+20˚юв452223 0.0 101775
07:30+19˚юв572695 0.0 1019275
10:30+25˚юв451797 0.0 1019573
13:30+29˚ююв331299 0.0 10161585
16:30+31˚ю3310100 0.0 10142036
19:30+30˚ю3310100 0.0 10141932
22:30+26˚ю341392 0.0 101543
21 января, чт
чт2101:30+23˚в231455 0.0 101323
04:30+21˚ююв121527 0.0 101323
07:30+24˚ююв11160 0.0 101423
10:30+30˚вюв1290 0.0 10131006
13:30+33˚ююз1490 0.0 10113497
16:30+35˚зюз2580 0.0 10084604
19:30+35˚сз35917 0.0 10073447
22:30+31˚зюз221350 0.0 100933